User: anonymous   Login
Location: C.E.K. Mees Observatory
(42.7003°N, 77.4088°W)
Time: 02:51:29
(UTC-04:00)
Language:

Hubble Space Telescope - Orbit

View from above orbital plane
View from above orbital plane
View from above satellite
View from above satellite

Ground track
Ground track

The orbit data is extracted from the following two-line orbital elements,

1 20580U 90037B   18171.95107465 +.00000396 +00000-0 +13231-4 0  9991
2 20580 028.4698 090.2235 0002773 176.6005 262.6968 15.09053586345956
Epoch (UTC): 20 June 2018 22:49:32
Eccentricity: 0.0002773
inclination: 28.4698°
perigee height: 537 km
apogee height: 541 km
right ascension of ascending node: 90.2235°
argument of perigee: 176.6005°
revolutions per day: 15.09053586
mean anomaly at epoch: 262.6968°
orbit number at epoch: 34595

The dashed part of the orbit path shows where the satellite is in the earth's shadow,  

DLR